This is the latest recevied weather packets stored in our database for station/object KM4KBD. If no packets are shown the sender has not sent any weather packets the latest 10 day(s).
| Time | Temp. | Humidity | Pressure | Rain* | Wind** | Luminosity | Snow |
|---|---|---|---|---|---|---|---|
| 1777856798 | 13.89° C | 53% | 1020.8 hPa | 0 mm | - | 0 W/m² | - |
| 1777856494 | 13.89° C | 53% | 1020.7 hPa | 0 mm | - | 0 W/m² | - |
| 1777856191 | 13.89° C | 52% | 1020.6 hPa | 0 mm | - | 0 W/m² | - |
| 1777855887 | 13.89° C | 52% | 1020.6 hPa | 0 mm | - | 0 W/m² | - |
| 1777855586 | 14.44° C | 51% | 1020.9 hPa | 0 mm | - | 0 W/m² | - |
| 1777855283 | 14.44° C | 51% | 1020.9 hPa | 0 mm | - | 0 W/m² | - |
| 1777854979 | 14.44° C | 50% | 1020.7 hPa | 0 mm | - | 1 W/m² | - |
| 1777854675 | 14.44° C | 49% | 1020.7 hPa | 0 mm | - | 2 W/m² | - |
| 1777854372 | 15° C | 48% | 1020.6 hPa | 0 mm | - | 3 W/m² | - |
| 1777854070 | 15° C | 48% | 1020.5 hPa | 0 mm | - | 4 W/m² | - |
| 1777853768 | 15° C | 48% | 1020.8 hPa | 0 mm | - | 6 W/m² | - |
| 1777853463 | 15° C | 46% | 1020.7 hPa | 0 mm | - | 8 W/m² | - |
| 1777853161 | 15° C | 46% | 1020.9 hPa | 0 mm | - | 11 W/m² | - |
| 1777852858 | 15° C | 46% | 1021.1 hPa | 0 mm | - | 14 W/m² | - |
| 1777852556 | 15° C | 45% | 1020.7 hPa | 0 mm | - | 17 W/m² | - |
| 1777852253 | 15° C | 43% | 1020.7 hPa | 0 mm | - | 22 W/m² | - |
| 1777851950 | 15.56° C | 44% | 1021 hPa | 0 mm | - | 32 W/m² | - |
| 1777851649 | 15.56° C | 43% | 1020.9 hPa | 0 mm | - | 37 W/m² | - |
| 1777851344 | 15.56° C | 44% | 1020.9 hPa | 0 mm | - | 43 W/m² | - |
| 1777851041 | 15.56° C | 42% | 1021.5 hPa | 0 mm | - | 48 W/m² | - |
| 1777850738 | 16.11° C | 41% | 1021.2 hPa | 0 mm | - | 59 W/m² | - |
| 1777850436 | 16.67° C | 38% | 1021.2 hPa | 0 mm | - | 70 W/m² | - |
| 1777850133 | 16.67° C | 40% | 1021.1 hPa | 0 mm | - | 82 W/m² | - |
| 1777849830 | 16.67° C | 39% | 1021.1 hPa | 0 mm | - | 100 W/m² | - |
| 1777849526 | 16.11° C | 40% | 1021.1 hPa | 0 mm | - | 74 W/m² | - |
* Rain latest hour (hover to see other rain measurements)
** Current wind speed in m/s (hover to see current wind gust speed)